Skip Page Navigation
NASA JPL Caltech
NASA Logo - Jet Propulsion Laboratory + View the NASA Portal
+ Center for Near-Earth Object Studies
JPL Home Earth Solar System Stars & Galaxies Technology
JPL Solar System Dynamics
BODIES ORBITS EPHEMERIDES TOOLS PHYSICAL DATA DISCOVERY FAQ SITE MAP
IMPORTANT: The SSD Announcement email list is now available. Major changes are coming in the near future, including possible hostname and/or URL changes. To be notified of such changes, subscribe to this email list.

Please visit this page for more details.


JPL Small-Body Database Browser
Search: [ help ]  
160637 (1999 VF88)
Classification: Main-belt Asteroid          SPK-ID: 2160637
Ephemeris | Orbit Diagram | Orbital Elements | Mission Design | Physical Parameters | Discovery Circumstances ]

[ show orbit diagram ]
Orbital Elements at Epoch 2458600.5 (2019-Apr-27.0) TDB
Reference: JPL 10 (heliocentric ecliptic J2000)
 Element Value Uncertainty (1-sigma)   Units 
e .196956695361362 4.2566e-08  
a 2.601806906112291 1.7374e-08 au
q 2.089363615916045 1.1694e-07 au
i 2.92369842773034 6.9677e-06 deg
node 216.375573435214 0.0001018 deg
peri 113.3148620881789 0.00010433 deg
M 277.9123165702029 2.459e-05 deg
tp 2458950.031659600765
(2020-Apr-10.53165960)
0.00010703 TDB
period 1532.890102373136
4.20
1.5354e-05
4.204e-08
d
yr
n .234850495441694 2.3523e-09 deg/d
Q 3.114250196308538 2.0795e-08 au
  Orbit Determination Parameters
   # obs. used (total)      297  
   data-arc span      7148 days (19.57 yr)  
   first obs. used      1999-10-15  
   last obs. used      2019-05-11  
   planetary ephem.      DE431  
   SB-pert. ephem.      SB431-N16  
   condition code      0  
   norm. resid. RMS      .50327  
   source      ORB  
   producer      Otto Matic  
   solution date      2019-May-30 07:33:19  

Additional Information
 Earth MOID = 1.07966 au 
 Jupiter MOID = 2.25165 au 
 T_jup = 3.385 
[ show covariance matrix ]

Ephemeris | Orbit Diagram | Orbital Elements | Mission Design | Physical Parameters | Discovery Circumstances ]

Physical Parameter Table
Parameter Symbol Value Units Sigma Reference Notes
absolute magnitude H 16.4   n/a MPO436810  

160637 (1999 VF88)          Discovered 1999-Nov-04 by LINEAR at Socorro
Reference: 20070828/Numbers.arcLast Updated: 2007-08-30
Ephemeris | Orbit Diagram | Orbital Elements | Mission Design | Physical Parameters | Discovery Circumstances ]
ABOUT SSD CREDITS/AWARDS PRIVACY/COPYRIGHT GLOSSARY LINKS
FirstGov
(server date/time)  
NASA Home Page
Site Manager:   Ryan S. Park
Webmaster  Alan B. Chamberlin